Weather in Khutorskoy

Russia / Rostov Oblast     46°52′17″N   42°59′15″E
temp.,
°C
wind,
m/s
gust,
m/s
humid.,
%
clouds,
%
prec.,
mm/h
press.,
hPa
HPBL,
m
9 march, tue
tue900:00−1sw511906 0.0 1015297
03:00−1sw6139338 0.0 1014491
06:000sw71396100 0.1 1013696
09:00+1wsw81397100 0.9 1013713
12:00+1wnw6119296 1.9 1014733
15:00+3w7106497 2.2 10141627
18:000w477298 0.1 1016158
21:00−2w487978 0.1 1017194
10 march, wed
wed1000:00−3wnw498210 0.0 1018265
03:00−4nw479132 0.0 1020264
06:00−4nw378279 0.0 1022526
09:00−3nw575847 0.0 10241161
12:00−1nw574743 0.0 10251451
15:00−1nnw564227 0.0 10251487
18:00−3nne365689 0.0 1024258
21:00−3ne255795 0.0 1025320
11 march, thu
thu1100:00−4ene4557100 0.0 1025416
03:00−4ene5655100 0.0 1025544
06:00−5ene5758100 0.0 1025608
09:00−5e6860100 0.0 1026685
12:00−3ene7847100 0.0 10261027
15:00−3ene7843100 0.0 10251175
18:00−5ene6844100 0.0 10261109
21:00−7ene7939100 0.0 1027860
12 march, fri
fri1200:00−8ene7946100 0.0 1028794
03:00−10ene795598 0.0 1028728
06:00−11ene695575 0.0 1030610
09:00−10ene684438 0.0 1032597
12:00−6e67320 0.0 1032904
15:00−4e56290 0.0 10311186
18:00−5e46320 0.0 1032988
21:00−6e57330 0.0 1033695
13 march, sat
sat1300:00−7ese37370 0.0 1033448
03:00−8ese47370 0.0 1033329
06:00−8ese48360 0.0 1034298
09:00−6se68310 0.0 1034670
12:00−2se562613 0.0 10331026
15:00−1se572756 0.0 10311046
18:00−2se483296 0.0 1030474
21:00−4se6113148 0.0 1030527